Eppley Airfield Omaha US
ICAO: KOMA
IATA: OMA
Category: Medium
Scheduled Services: Yes

Elevation: 984 ft
TransAlt. 18000 ft.

Airport Communications:
OMAHA APP/DEP:120.1
ATIS:120.4
CLNC DEL:119.9
GND:121.9
FORT DODGE RDO:116.3
COLUMBUS RDO:122.35
OMAHA TWR:132.1
UNICOM:122.95

KOMA Zoom In..

If Map Doesn't Load, Click Here

Runways:

(A) RW 14L length 8500 ft width 150 ft
ILS 111.75 / hdg 139

(B) RW 14R length 9502 ft width 150 ft
ILS 110.30 / hdg 139

(C) RW 18 length 8154 ft width 150 ft
ILS 110.90 / hdg 175

(D) RW 32L length 9502 ft width 150 ft
ILS 111.90 / hdg 319

(E) RW 32R length 8500 ft width 150 ft
ILS 111.15 / hdg 319

(F) RW 36 length 8154 ft width 150 ft
ILS 110.70 / hdg 355

Location; KOMA
Day. 23 / Time. 08.52 Zulu
* Altimeter: 30.07
* Temperature: 12° c. 53.6°f.
* Wind from: 140° Speed 05 kn.
Dewpoint: 09° c.
Visibility: 10 Statute Miles.
Clouds: Clear (automated report).

KOMA 230852Z 14005KT 10SM CLR 12/09 A3007 RMK AO2 SLP179 T01220089 58001


Wind From 140°
Speed 05 kn.

 
 
jpsmedia.com for Web Design worldairports.se 2018   terms of use